Location: Ferma
(41.9500°N, 44.5167°E)
Time: 17:39:51
(UTC+00:00)

deb Tiros-N - Visible Passes

Search period start: 11 August 2022 00:00
Search period end: 21 August 2022 00:00
Orbit: 566 x 569 km, 98.9° (Epoch: 11 August)

Date Brightness Start Highest point End Pass type
(mag) Time Alt. Az. Time Alt. Az. Time Alt. Az.
11 Aug ? 19:23:27 31° NNE 19:23:27 31° NNE 19:25:50 10° N visible
12 Aug ? 19:24:42 30° NNE 19:24:42 30° NNE 19:26:59 10° N visible
13 Aug ? 19:25:55 29° NNE 19:25:55 29° NNE 19:28:06 10° N visible
14 Aug ? 19:27:08 28° NNE 19:27:08 28° NNE 19:29:14 10° N visible
15 Aug ? 19:28:20 27° N 19:28:20 27° N 19:30:20 10° N visible
16 Aug ? 19:29:31 25° N 19:29:31 25° N 19:31:25 10° N visible
17 Aug ? 19:30:41 24° N 19:30:41 24° N 19:32:29 10° N visible
18 Aug ? 19:31:51 23° N 19:31:51 23° N 19:33:33 10° N visible
19 Aug ? 19:32:59 22° N 19:32:59 22° N 19:34:35 10° N visible
20 Aug ? 19:34:07 21° N 19:34:07 21° N 19:35:36 10° N visible
